Location: Unspecified
(43.3116°N, 2.0147°W)
Time: 03:01:14
(UTC+02:00)

Okean 3 - Pass Details

Date: 11 July 2022
Orbit: 573 x 599 km, 82.5° (Epoch: 17 August)

Event Time Altitude Azimuth Distance (km) Brightness Sun altitude
Rises 05:56:44 0° 356° (N) 2,807 7.5 -6.9°
Reaches altitude 10° 05:59:00 10° 1° (N) 1,899 6.7 -6.6°
Maximum altitude 06:03:05 52° 79° (E) 719 4.4 -6.0°
Drops below altitude 10° 06:07:08 10° 156° (SSE) 1,875 5.9 -5.5°
Sets 06:09:20 0° 161° (SSE) 2,767 6.7 -5.1°
